Location: *
(58.4167°N, 22.5000°E)
Time: 06:00:34
(UTC+00:00)

Cosmos 1726 Rocket - Pass Details

Date: 22 September 2019
Orbit: 602 x 631 km, 82.5° (Epoch: 20 October)

Event Time Altitude Azimuth Distance (km) Brightness Sun altitude
Exits shadow 19:46:44 51° 53° (NE) 801 4.0 -23.8°
Drops below altitude 10° 19:50:21 10° 18° (NNE) 2,020 6.5 -24.2°
Sets 19:52:37 0° 15° (NNE) 2,929 7.5 -24.4°
